Burnside, LA

5:38 AM CST on February 08, 2016 (GMT -0600)
Gonzales

Weather History for KL38 - February, 2013

Change the Weather History Date:

Monday, February 25, 2013

  Actual Average (KBTR) Record (KBTR)
Temperature  
Mean Temperature 62 °F 57 °F  
Max Temperature 66 °F 68 °F 84 °F (1962)
Min Temperature 58 °F 47 °F 25 °F (1965)
Degree Days  
Heating Degree Days 2 8  
Month to date heating degree days 271  
Since 1 July heating degree days 1311  
Cooling Degree Days 0 1  
Month to date cooling degree days 23  
Year to date cooling degree days 36  
Growing Degree Days 12 (Base 50)    
Moisture  
Dew Point 60 °F    
Average Humidity 91    
Maximum Humidity 100    
Minimum Humidity 49    
Precipitation  
Precipitation 1.20 in 0.16 in 2.06 in (1985)
Month to date precipitation 4.55  
Year to date precipitation 10.27  
Snow  
Snow 0.00 in - - ()
Month to date snowfall  
Since 1 July snowfall  
Snow Depth -    
Sea Level Pressure  
Sea Level Pressure 29.61 in    
Wind  
Wind Speed 6 mph (ESE)    
Max Wind Speed 13 mph    
Max Gust Speed 28 mph    
Visibility 8 miles    
Events Rain , Thunderstorm    
T = Trace of Precipitation, MM = Missing Value Source: NWS Daily Summary

Daily Weather History Graph

Daily Weather History Graph

Search for Another Location

Airport or City:

Trip Planner

Search our weather history database for the weather conditions in past years. The results will help you decide how hot, cold, wet, or windy it might be!

Date:

Astronomy

Feb. 25, 2013 Rise Set
Actual Time 6:33 AM CST 6:00 PM CST
Civil Twilight 6:09 AM CST 6:24 PM CST
Nautical Twilight 5:41 AM CST 6:52 PM CST
Astronomical Twilight 5:14 AM CST 7:19 PM CST
Moon 6:08 PM CST (2/25) 6:06 AM CST (2/25)
Length of Visible Light 12h 14m
Length of Day
11h 26m
Full, 100% of the Moon is Illuminated
Feb 25
Full
Feb 25
Full
Mar 4
Last Quarter
Mar 11
New
Mar 19
First Quarter

Hourly Weather History & Observations

Time (CST) Temp. Dew Point Humidity Pressure Visibility Wind Dir Wind Speed Gust Speed Precip Events Conditions
12:15 AM 60.8 °F 60.6 °F 99% 29.77 in 4.0 mi Calm Calm - 0.11 in Rain , Thunderstorm Heavy Thunderstorms and Rain
12:35 AM 61.2 °F 61.0 °F 99% 29.74 in 7.0 mi East 9.2 mph - 0.30 in Rain , Thunderstorm Light Thunderstorms and Rain
12:55 AM 61.2 °F 61.0 °F 99% 29.75 in 10.0 mi NE 4.6 mph - 0.35 in Rain , Thunderstorm Rain
1:15 AM 60.8 °F 60.4 °F 99% 29.71 in 10.0 mi East 9.2 mph - 0.02 in Rain Light Rain
1:35 AM 60.8 °F 60.3 °F 98% 29.70 in 10.0 mi East 10.4 mph - 0.02 in   Overcast
1:55 AM 60.4 °F 60.1 °F 99% 29.70 in 10.0 mi East 5.8 mph 16.1 mph 0.02 in Thunderstorm Overcast
2:15 AM 60.4 °F 60.1 °F 99% 29.69 in 10.0 mi NE 5.8 mph - N/A Thunderstorm Thunderstorm
2:35 AM 60.8 °F 60.3 °F 98% 29.65 in 10.0 mi ENE 6.9 mph - N/A Rain , Thunderstorm Light Thunderstorms and Rain
2:55 AM 60.8 °F 60.4 °F 99% 29.64 in 4.0 mi NE 3.5 mph - 0.35 in Rain , Thunderstorm Rain
3:15 AM 61.2 °F 60.8 °F 99% 29.72 in 3.0 mi WNW 11.5 mph 27.6 mph 0.15 in Rain , Thunderstorm Heavy Thunderstorms and Rain
3:35 AM 61.3 °F 60.8 °F 98% 29.68 in 10.0 mi NNE 3.5 mph - 0.16 in Rain Light Rain
3:55 AM 61.2 °F 60.8 °F 99% 29.68 in 10.0 mi Calm Calm - 0.16 in Rain , Thunderstorm Light Thunderstorms and Rain
4:15 AM 61.2 °F 61.0 °F 99% 29.69 in 10.0 mi SE 6.9 mph - 0.02 in Rain , Thunderstorm Light Thunderstorms and Rain
4:35 AM 61.2 °F 61.0 °F 99% 29.69 in 10.0 mi Calm Calm - 0.03 in Rain Light Rain
4:55 AM 61.5 °F 61.2 °F 99% 29.68 in 10.0 mi East 6.9 mph - 0.03 in Rain Light Rain
5:15 AM 61.5 °F 61.2 °F 99% 29.68 in 10.0 mi East 6.9 mph - N/A   Mostly Cloudy
5:35 AM 61.7 °F 61.2 °F 98% 29.67 in 10.0 mi East 5.8 mph - N/A   Overcast
6:15 AM 61.7 °F 61.0 °F 97% 29.68 in 10.0 mi ENE 4.6 mph - N/A   Overcast
6:35 AM 61.7 °F 60.8 °F 97% 29.68 in 10.0 mi East 5.8 mph - N/A   Overcast
6:55 AM 61.7 °F 60.8 °F 97% 29.69 in 10.0 mi East 8.1 mph - N/A   Overcast
7:15 AM 62.2 °F 60.8 °F 95% 29.70 in 10.0 mi ENE 5.8 mph - N/A   Overcast
7:35 AM 62.1 °F 60.4 °F 94% 29.70 in 10.0 mi East 6.9 mph - N/A   Overcast
7:55 AM 62.1 °F 60.8 °F 96% 29.70 in 10.0 mi East 3.5 mph - N/A   Overcast
8:15 AM 62.4 °F 61.0 °F 95% 29.71 in 10.0 mi East 8.1 mph - N/A   Overcast
8:35 AM 62.6 °F 61.2 °F 95% 29.72 in 10.0 mi East 9.2 mph - N/A   Overcast
8:55 AM 62.6 °F 61.3 °F 96% 29.71 in 7.0 mi East 8.1 mph - N/A   Overcast
9:15 AM 62.6 °F 61.2 °F 95% 29.71 in 10.0 mi East 5.8 mph - N/A   Overcast
9:35 AM 62.8 °F 61.2 °F 94% 29.70 in 10.0 mi East 5.8 mph - N/A   Overcast
9:55 AM 63.3 °F 61.5 °F 94% 29.70 in 10.0 mi East 8.1 mph - N/A   Overcast
10:15 AM 63.9 °F 61.7 °F 93% 29.69 in 10.0 mi East 6.9 mph - N/A   Overcast
10:35 AM 64.4 °F 62.1 °F 92% 29.69 in 10.0 mi East 5.8 mph - N/A   Overcast
10:55 AM 64.6 °F 62.6 °F 93% 29.69 in 10.0 mi ESE 4.6 mph - N/A   Overcast
11:15 AM 64.8 °F 62.8 °F 93% 29.69 in 10.0 mi East 5.8 mph - N/A   Overcast
11:35 AM 64.9 °F 62.6 °F 92% 29.68 in 10.0 mi East 3.5 mph - N/A   Overcast
11:55 AM 65.3 °F 63.0 °F 92% 29.63 in 10.0 mi NE 5.8 mph - N/A   Overcast
12:15 PM 65.3 °F 63.1 °F 93% 29.63 in 10.0 mi East 8.1 mph - N/A   Overcast
12:35 PM 65.3 °F 63.5 °F 94% 29.63 in 7.0 mi East 4.6 mph - N/A Thunderstorm Overcast
12:55 PM 64.8 °F 64.0 °F 98% 29.61 in 1.5 mi East 4.6 mph - 0.06 in Rain Heavy Rain
1:15 PM 64.4 °F 63.9 °F 98% 29.59 in 1.8 mi Calm Calm - N/A Rain , Thunderstorm Light Thunderstorms and Rain
1:35 PM 64.4 °F 63.9 °F 98% 29.58 in 2.0 mi East 6.9 mph - 0.15 in Rain , Thunderstorm Thunderstorms and Rain
1:55 PM 64.8 °F 64.0 °F 98% 29.55 in 10.0 mi East 8.1 mph - 0.15 in Thunderstorm Overcast
2:15 PM 64.4 °F 63.7 °F 98% 29.52 in 4.0 mi East 11.5 mph - N/A Thunderstorm Unknown
2:35 PM 63.5 °F 63.1 °F 99% 29.55 in 3.0 mi East 4.6 mph - N/A Thunderstorm Overcast
2:55 PM 63.5 °F 63.1 °F 99% 29.55 in 3.0 mi ENE 3.5 mph - N/A   Overcast
3:15 PM 62.8 °F 62.8 °F 100% 29.54 in 1.2 mi East 5.8 mph - N/A   Overcast
3:35 PM 63.0 °F 63.0 °F 100% 29.52 in 3.0 mi East 8.1 mph - N/A Rain , Thunderstorm Light Thunderstorms and Rain
3:55 PM 63.0 °F 62.6 °F 99% 29.52 in 4.0 mi East 6.9 mph - 0.01 in Rain Light Rain
4:15 PM 62.6 °F 62.6 °F 100% 29.51 in 3.0 mi East 6.9 mph - 0.03 in Rain Rain
4:35 PM 62.8 °F 62.8 °F 100% 29.47 in 4.0 mi North - - 0.06 in Rain , Thunderstorm Light Thunderstorms and Rain
4:55 PM 63.9 °F 63.7 °F 99% 29.41 in 7.0 mi East 11.5 mph - 0.07 in Rain Light Rain
5:15 PM 65.8 °F 65.1 °F 98% 29.42 in 10.0 mi ESE 10.4 mph 19.6 mph N/A   Mostly Cloudy
5:35 PM 65.3 °F 63.7 °F 94% 29.44 in 10.0 mi SSE 6.9 mph - N/A   Mostly Cloudy
5:55 PM 64.6 °F 63.5 °F 96% 29.48 in 10.0 mi South 5.8 mph - N/A   Mostly Cloudy
6:15 PM 65.3 °F 64.4 °F 97% 29.49 in 10.0 mi SSW 4.6 mph - N/A   Mostly Cloudy
6:35 PM 66.2 °F 64.0 °F 93% 29.49 in 10.0 mi South 6.9 mph - N/A   Overcast
6:55 PM 66.2 °F 64.0 °F 93% 29.49 in 10.0 mi SSW 8.1 mph - N/A   Overcast
7:15 PM 66.2 °F 64.4 °F 94% 29.50 in 7.0 mi SSW 6.9 mph - N/A Rain Rain
7:35 PM 66.2 °F 64.4 °F 94% 29.50 in 10.0 mi SW 5.8 mph - N/A   Overcast
7:55 PM 65.5 °F 62.6 °F 90% 29.50 in 10.0 mi SW 4.6 mph - N/A   Overcast
8:15 PM 65.3 °F 61.0 °F 86% 29.51 in 10.0 mi SSW 5.8 mph - N/A   Scattered Clouds
8:35 PM 64.0 °F 60.3 °F 87% 29.51 in 10.0 mi SW 4.6 mph - N/A   Scattered Clouds
8:55 PM 63.5 °F 58.5 °F 84% 29.51 in 10.0 mi SW 4.6 mph - N/A   Clear
9:15 PM 63.0 °F 55.4 °F 76% 29.52 in 10.0 mi SW 4.6 mph - N/A   Clear
9:35 PM 62.6 °F 49.5 °F 62% 29.54 in 10.0 mi SW 8.1 mph - N/A   Clear
9:55 PM 61.9 °F 46.4 °F 57% 29.55 in 10.0 mi SW 6.9 mph 16.1 mph N/A   Clear
10:15 PM 61.3 °F 45.7 °F 56% 29.56 in 10.0 mi SW 8.1 mph - N/A   Clear
10:35 PM 61.0 °F 45.5 °F 57% 29.57 in 10.0 mi WSW 8.1 mph - N/A   Clear
10:55 PM 60.6 °F 43.2 °F 53% 29.58 in 10.0 mi WSW 6.9 mph 16.1 mph N/A   Clear
11:15 PM 60.1 °F 41.9 °F 51% 29.59 in 10.0 mi WSW 5.8 mph - N/A   Clear
11:35 PM 59.2 °F 40.8 °F 51% 29.59 in 10.0 mi West 12.7 mph 20.7 mph N/A   Clear
11:55 PM 58.1 °F 39.2 °F 49% 29.61 in 10.0 mi West 11.5 mph 20.7 mph N/A   Clear